Weather History for Lander, WY

Change the Weather History Date:

Thursday, August 22, 2013

  Actual Average Record
Temperature  
Mean Temperature 73 °F 69 °F  
Max Temperature 89 °F 84 °F 96 °F (2009)
Min Temperature 56 °F 53 °F 31 °F (1904)
Degree Days  
Heating Degree Days 0 1  
Month to date heating degree days 0 10  
Since 1 June heating degree days 54 152  
Since 1 July heating degree days 0 26  
Cooling Degree Days 8 4  
Month to date cooling degree days 184 135  
Year to date cooling degree days 601 412  
Since 1 June cooling degree days 592 407  
Growing Degree Days 22 (Base 50)    
Moisture  
Dew Point 46 °F    
Average Humidity 45    
Maximum Humidity 67    
Minimum Humidity 23    
Precipitation  
Precipitation T in 0.01 in 0.40 in (1957)
Month to date precipitation 0.01 0.46  
Year to date precipitation 7.86 8.73  
Snow  
Snow 0.00 in 0.00 in - ()
Month to date snowfall 0.0 0.0  
Since 1 June snowfall 0.0 0.1  
Since 1 July snowfall 0.0 0.0  
Snow Depth 0.00 in    
Sea Level Pressure  
Sea Level Pressure 29.97 in    
Wind  
Wind Speed 6 mph (WSW)    
Max Wind Speed 24 mph    
Max Gust Speed 32 mph    
Visibility 10 miles    
Events Rain    
T = Trace of Precipitation, MM = Missing Value Source: NWS Daily Summary

Daily Weather History Graph

Daily Weather History Graph

Search for Another Location

Airport:

Trip Planner

Search our weather history database for the weather conditions in past years. The results will help you decide how hot, cold, wet, or windy it might be!

Date:

Astronomy

Aug. 22, 2013 Rise Set
Actual Time 6:29 AM MDT 8:05 PM MDT
Civil Twilight 5:59 AM MDT 8:35 PM MDT
Nautical Twilight 5:22 AM MDT 9:11 PM MDT
Astronomical Twilight 4:44 AM MDT 9:49 PM MDT
Moon 8:46 PM MDT (8/22) 8:25 AM MDT (8/22)
Length of Visible Light 14h 36m
Length of Day
13h 36m
Waning Gibbous, 96% of the Moon is Illuminated
Aug 22
Waning Gibbous
Aug 28
Last Quarter
Sep 5
New
Sep 12
First Quarter
Sep 19
Full

Hourly Weather History & Observations

Time (MDT) Temp. Dew Point Humidity Pressure Visibility Wind Dir Wind Speed Gust Speed Precip Events Conditions
12:53 AM 66.0 °F 46.0 °F 48% 30.02 in 10.0 mi WSW 10.4 mph - N/A   Mostly Cloudy
1:53 AM 64.9 °F 46.0 °F 50% 30.04 in 10.0 mi WNW 6.9 mph - N/A   Mostly Cloudy
2:53 AM 64.0 °F 46.0 °F 52% 30.04 in 10.0 mi WSW 8.1 mph - N/A   Clear
3:53 AM 64.0 °F 46.0 °F 52% 30.04 in 10.0 mi SW 4.6 mph - N/A   Partly Cloudy
4:53 AM 57.9 °F 46.0 °F 65% 30.03 in 10.0 mi East 3.5 mph - N/A   Clear
5:53 AM 57.9 °F 45.0 °F 62% 30.04 in 10.0 mi NNW 5.8 mph - N/A   Clear
6:53 AM 59.0 °F 45.0 °F 60% 30.06 in 9.0 mi Calm Calm - N/A   Clear
7:53 AM 62.1 °F 46.9 °F 58% 30.06 in 8.0 mi ESE 3.5 mph - N/A   Clear
8:53 AM 66.9 °F 48.0 °F 51% 30.06 in 8.0 mi ESE 5.8 mph - N/A   Clear
9:53 AM 73.0 °F 46.9 °F 39% 30.04 in 9.0 mi SE 5.8 mph - N/A   Clear
10:53 AM 77.0 °F 46.9 °F 34% 30.02 in 10.0 mi ENE 3.5 mph - N/A   Clear
11:53 AM 80.1 °F 48.0 °F 32% 29.99 in 9.0 mi NNE 6.9 mph - N/A   Clear
12:53 PM 82.9 °F 48.0 °F 29% 29.95 in 10.0 mi Variable 3.5 mph - N/A   Clear
1:53 PM 84.9 °F 46.0 °F 26% 29.92 in 10.0 mi North 8.1 mph - N/A   Clear
2:53 PM 84.9 °F 45.0 °F 25% 29.89 in 10.0 mi North 6.9 mph - 0.00 in Rain Light Rain
3:53 PM 82.9 °F 48.0 °F 29% 29.88 in 10.0 mi NW 12.7 mph - 0.00 in   Partly Cloudy
4:53 PM 86.0 °F 44.1 °F 23% 29.88 in 10.0 mi South 8.1 mph - N/A   Scattered Clouds
5:53 PM 82.9 °F 41.0 °F 23% 29.87 in 10.0 mi WSW 15.0 mph 21.9 mph N/A   Scattered Clouds
6:53 PM 77.0 °F 46.9 °F 34% 29.89 in 10.0 mi NNE 11.5 mph - N/A   Partly Cloudy
7:53 PM 73.9 °F 48.0 °F 40% 29.89 in 10.0 mi SW 5.8 mph - N/A   Mostly Cloudy
8:53 PM 73.0 °F 46.9 °F 39% 29.91 in 10.0 mi West 3.5 mph - N/A   Clear
9:53 PM 70.0 °F 46.0 °F 42% 29.91 in 10.0 mi SW 5.8 mph - N/A   Clear
10:53 PM 70.0 °F 45.0 °F 41% 29.89 in 10.0 mi Calm Calm - N/A   Clear
11:53 PM 63.0 °F 46.0 °F 54% 29.89 in 10.0 mi SE 4.6 mph - N/A   Clear